sat.trackr.live / text

‹ back to catalog

STARLINK-11105 [DTC]

NORAD 59758 · 2024-091F

PAYLOAD ACTIVE UNKNOWN

§ Identity

Operator
Country
US
Launch date
2024-05-14
Launch site
AFWTR
Launch vehicle
Mass (kg)
RCS (m²)

Purposes: comms

External: N2YO · Heavens-Above · Gunter

§ Orbital elements

Epoch: 2026-09-21T09:58:01.711776Z

Period
91.74 min
Inclination
53.1597°
Eccentricity
0.0000883
Mean motion
15.69705603 rev/d
Perigee alt
359.1 km
Apogee alt
360.3 km
Semi-major
6,737.9 km
B*
4.0583e-6
RAAN
321.4718°
Arg perigee
108.1391°
Mean anomaly
251.9723°
Rev number
13,625

§ Raw data

STARLINK-11105 [DTC]1 59758U 24091F   26264.41529759 -.00000097  00000+0  40583-5 0  99932 59758  53.1597 321.4718 0000883 108.1391 251.9723 15.69705603136252

JSON: /api/v1/satellites/59758 · /tle

For live sub-satellite position, see the globe view (requires WebGL).

§ Visibility from observer

Set your observer location to see the next 7 days of passes ≥ 10°. The values pass through the URL so the page stays shareable.

No JS? Fill the form by hand. The geolocation button needs JavaScript.